Location: Berlin
(52.5171°N, 13.3759°E)
Time: 12:18:10
(UTC+02:00)

ISS - Pass Details

Date: 04 January 2018
Orbit: 402 x 408 km, 51.6° (Epoch: 20 July)

Event Time Altitude Azimuth Distance (km) Brightness Sun altitude
Exits shadow 05:29:30 39° 109° (ESE) 638 -2.4 -24.1°
Drops below altitude 10° 05:31:54 10° 85° (E) 1,503 0.1 -23.7°
Sets 05:34:02 0° 81° (E) 2,372 1.3 -23.4°
